#timestamp,LO_Frequency,Hit,StdDev 
1605369615.8,286046996.7,Y
1605369635.6,286046999.2,P
1605369655.5,286046997.3,P
1605369675.3,286046997.4,N
1605369695.1,286046997.8,N
1605369715.9,286046997.6,N
1605369735.7,286046995.0,Y
1605369755.5,286046999.1,P
1605369775.4,286046999.3,N
1605369795.2,286046997.1,P
1605369815.1,286046996.9,Y
1605369816.0,286046996.9,P
1605369835.8,286046999.2,N
1605369855.6,286046998.9,N
1605369875.5,286046998.7,N
1605369895.3,286046999.4,N
1605369915.1,286046999.6,N
1605369935.9,286046999.0,N
1605369955.7,286047001.1,N
1605369975.5,286047002.4,N
1605369995.4,286047001.8,N
1605370015.2,286047004.0,N
1605370035.0,286047001.3,N
1605370035.9,286047001.3,N
1605370055.8,286047004.4,N
1605370075.6,286047001.3,N
1605370095.4,286047004.4,N
1605370115.3,286047001.3,N
1605370135.1,286047004.3,N
1605370155.8,286047004.3,N
1605370175.7,286047005.8,N
1605370195.5,286047003.1,N
1605370215.3,286047005.9,N
1605370235.2,286047005.5,N
1605370255.0,286047005.5,N
1605370255.9,286047005.5,N
1605370275.7,286047004.8,N
1605370295.6,286047005.0,N
1605370315.4,286047007.6,N
1605370335.2,286047007.1,N
1605370355.1,286047006.7,N
1605370356.0,286047006.7,N
1605370375.8,286047008.9,Y
1605370395.6,286047004.7,P
1605370415.5,286047004.6,P
1605370435.3,286047007.1,P
1605370455.2,286047004.6,Y
1605370475.9,286046999.8,P
1605370495.7,286047004.0,N
1605370515.6,286047001.8,N
1605370535.4,286047001.4,N
1605370555.2,286047001.7,N
1605370575.1,286047001.3,N
1605370576.0,286047001.3,N
1605370595.8,286047001.3,N
1605370615.6,286047011.9,Y
1605370635.5,286047000.1,P
1605370655.3,286047002.7,N
1605370675.1,286047002.5,N
1605370695.9,286047001.4,N
1605370715.7,286047001.3,N
1605370735.5,286047004.4,Y
1605370755.4,286047000.2,P
1605370775.2,286047002.4,P
1605370795.0,286047000.2,N
1605370795.9,286047000.2,N
1605370815.8,286047000.4,N
1605370835.6,286047002.7,Y
1605370855.4,286047000.5,P
1605370875.3,286047002.8,P
1605370895.1,286047001.1,N
1605370915.8,286046998.2,N
1605370935.7,286047001.1,N
1605370955.5,286047001.0,N
1605370975.3,286047001.0,N
1605370995.2,286046998.2,N
1605371015.0,286047000.8,N
1605371015.9,286047000.8,N
1605371035.7,286047001.1,N
1605371055.6,286046998.1,N
1605371075.4,286047000.8,N
1605371095.2,286046998.4,N
1605371115.1,286046998.5,N
1605371116.0,286046998.5,N
1605371135.8,286046998.6,N
1605371155.6,286046998.7,N
1605371175.5,286046999.6,N
1605371195.3,286046999.2,N
1605371215.1,286046998.8,N
1605371235.9,286046999.1,N
1605371255.7,286046999.1,N
1605371275.6,286046999.3,N
1605371295.4,286046996.6,N
1605371315.2,286046996.9,N
1605371335.0,286046997.7,N
1605371336.0,286046997.7,N
1605371355.8,286046996.6,N
1605371375.6,286046996.8,N
1605371395.5,286046996.5,N
1605371415.3,286046997.2,N
1605371435.1,286046997.9,N
1605371455.9,286046997.5,N
1605371475.7,286046994.9,Y
1605371495.5,286046997.0,P
1605371515.4,286046997.5,N
1605371535.2,286046997.4,P
1605371555.0,286046997.3,Y
1605371555.9,286046997.3,P
1605371575.8,286046998.1,P
1605371595.6,286046999.0,P
1605371615.4,286046998.3,N
1605371635.3,286046999.2,N
1605371655.1,286046999.6,N
1605371675.8,286046999.5,N
1605371695.7,286046996.5,Y
1605371715.5,286046998.6,P
1605371735.3,286047000.0,P
1605371755.2,286047001.0,N
1605371775.0,286046998.5,N
1605371775.9,286046998.5,N
1605371795.7,286046998.4,N
1605371815.6,286046998.7,N
1605371835.4,286046998.6,N
1605371855.2,286047000.6,N
1605371875.1,286046998.8,N
1605371876.0,286046998.8,N
1605371895.8,286046999.6,N
1605371915.6,286046996.6,Y
1605371935.5,286046998.7,P
1605371955.3,286047001.1,P
1605371975.1,286046998.7,N
1605371995.9,286046999.0,N
1605372015.7,286046998.7,N
1605372035.6,286046999.1,N
1605372055.4,286046998.3,N
1605372075.2,286046998.9,N
1605372095.0,286046999.2,N
1605372096.0,286046999.2,N
1605372115.8,286046998.8,N
1605372135.6,286046998.1,N
1605372155.5,286046998.3,N
1605372175.3,286046998.8,N
1605372195.1,286046998.5,N
1605372215.9,286046998.2,N
1605372235.7,286047001.2,N
1605372255.5,286047000.7,N
1605372275.4,286046998.5,N
1605372295.2,286047001.2,N
1605372315.0,286046998.6,N
1605372315.9,286046998.6,N
1605372335.8,286046999.3,N
1605372355.6,286046996.6,Y
1605372375.4,286046998.6,P
1605372395.3,286046999.6,N
1605372415.1,286046996.8,P
1605372416.0,286046996.8,Y
1605372435.8,286046999.1,P
1605372455.7,286046996.5,P
1605372475.5,286046999.0,N
1605372495.3,286046999.3,N
1605372515.2,286046998.7,N
1605372535.9,286046999.6,N
1605372555.7,286046999.1,N
1605372575.6,286046997.0,Y
1605372595.4,286046998.2,P
1605372615.2,286046998.7,P
1605372635.1,286046999.6,N
1605372636.0,286046999.6,N
1605372655.8,286047001.0,N
1605372675.6,286046999.0,N
1605372695.5,286046999.6,N
1605372715.3,286046996.7,Y
1605372735.1,286046996.6,P
1605372755.9,286046996.7,N
1605372775.7,286046997.0,N
1605372795.5,286046996.8,N
1605372815.4,286046994.9,Y
1605372835.2,286046999.9,P
1605372855.1,286047002.8,N
1605372856.0,286047002.8,N
1605372875.8,286046999.9,N
1605372895.6,286046998.8,N
1605372915.5,286046999.0,N
1605372935.3,286046998.5,N
1605372955.1,286046998.3,N
1605372975.9,286046998.5,N
1605372995.7,286046999.3,N
1605373015.5,286046999.6,N
1605373035.4,286046999.2,N
1605373055.2,286046996.9,N
1605373075.0,286046996.7,N
1605373075.9,286046996.7,N
1605373095.8,286046997.8,N
1605373115.6,286046995.3,N
1605373135.4,286046995.5,N
1605373155.3,286046996.1,N
1605373175.1,286046993.3,Y
1605373176.0,286046993.3,P
1605373195.8,286046997.9,N
